Temp
26 25 24 24 25 25 25 25 25 25 25 25 24 24 23 23 23 24 24 24 24 24 23 24 23 23 23 22 22 22 22 22 21 21 21 21 21 21 20 20 19 19 19 19 18 17 17 17 17 17 17 17 16 16 16 16 16 16 16 15 15 15 15 15 15 16 16 16 17 17 17 17 17 16 16 16 16 16 16 16 16 17 17 17 18 19
25 24 24 24 25 25 25 25 25 25 25 25 24 23 23 23 23 24 24 23 24 23 23 23 23 23 23 22 22 22 22 21 21 21 21 21 21 21 20 20 19 19 19 19 18 18 17 17 17 17 17 17 16 16 16 16 16 16 15 15 15 15 15 15 15 15 15 16 16 16 16 16 16 16 16 16 16 16 16 16 17 17 17 17 18 18
24 23 23 24 24 24 24 25 25 24 25 24 24 23 22 23 23 23 23 23 24 23 22 23 23 22 22 22 22 22 21 21 21 21 21 21 20 20 20 19 19 19 18 18 18 18 18 18 17 17 17 16 16 16 16 16 15 15 15 15 15 15 15 15 15 15 15 15 15 15 15 15 16 16 16 16 16 16 16 16 16 17 17 17 18 18
22 23 23 23 24 25 24 24 24 24 24 24 24 22 22 23 23 22 22 23 23 23 22 23 22 22 22 21 21 22 22 21 21 21 21 21 21 20 20 19 18 18 17 18 18 18 18 18 18 17 17 16 16 16 16 15 15 15 15 15 15 15 15 15 14 14 14 15 15 15 15 15 16 15 15 15 15 15 16 16 16 16 17 17 18 18
22 23 23 23 24 25 24 24 24 24 24 24 24 22 22 23 23 22 22 23 23 23 23 22 21 21 21 21 21 21 21 21 20 20 20 20 20 20 19 19 18 18 17 18 18 18 18 18 18 17 17 16 16 16 15 15 15 15 15 15 15 15 15 14 14 14 14 15 15 15 16 16 15 15 15 15 15 15 15 16 17 16 17 17 18 18
23 22 22 23 24 25 24 24 24 23 23 23 23 23 22 23 23 23 23 22 21 21 22 22 20 20 21 21 21 21 20 20 20 20 20 20 20 19 19 19 18 18 18 18 18 18 18 18 18 17 17 17 16 16 15 15 15 15 15 14 14 14 15 14 14 14 14 15 15 15 16 15 15 15 15 15 15 14 14 16 17 16 17 17 17 18
23 23 23 24 24 24 24 23 23 23 22 22 22 22 22 22 22 22 22 22 21 20 21 22 20 20 21 21 21 21 20 19 19 19 19 19 20 20 19 19 19 18 18 18 18 18 18 18 17 17 17 17 16 16 15 15 15 14 14 14 14 14 14 14 14 14 14 15 15 15 15 15 14 14 15 15 15 15 14 14 15 16 17 17 16 17
23 23 23 24 24 24 24 23 22 23 22 21 22 22 22 22 22 22 22 21 21 21 21 21 21 20 20 21 21 21 20 19 18 18 17 18 19 20 19 19 19 18 18 18 18 18 18 17 17 17 17 16 16 15 15 15 15 14 14 14 14 14 14 14 14 14 14 14 14 15 15 15 15 14 14 14 15 15 14 14 15 16 17 17 16 17
23 23 23 23 23 23 23 22 22 22 22 22 22 22 22 22 22 22 22 22 22 21 20 21 20 19 20 21 21 21 20 19 18 18 18 18 19 20 19 19 19 18 19 18 18 18 18 17 17 16 16 16 16 15 15 15 15 14 14 14 14 14 14 14 13 13 14 14 14 14 15 15 15 15 14 14 15 15 15 14 14 15 16 16 16 17
22 22 22 23 23 23 22 22 22 22 22 22 21 22 22 22 22 22 22 22 21 20 20 20 20 19 20 20 20 20 20 21 20 19 19 18 19 20 19 19 19 19 19 18 18 18 17 17 17 16 16 16 15 15 15 14 14 14 14 14 14 14 14 14 13 13 13 13 14 14 14 15 15 15 14 14 14 15 15 15 14 15 15 16 16 17
22 22 22 22 22 22 22 22 21 21 21 21 21 22 22 22 22 22 22 21 20 20 20 20 19 18 19 20 20 20 19 20 21 20 20 19 20 20 19 19 19 19 19 18 18 18 17 17 17 16 16 16 15 15 14 14 14 14 14 14 14 14 13 13 13 13 13 13 13 13 14 14 14 15 15 14 14 14 14 15 14 15 15 15 17 17
22 22 22 22 21 22 22 22 22 21 21 21 22 22 21 21 21 21 21 20 20 20 20 19 19 18 18 19 20 20 19 20 20 20 20 19 19 19 19 20 20 19 19 19 19 19 18 17 17 16 16 16 15 15 14 14 13 14 14 13 13 13 13 13 13 13 13 13 13 13 13 14 14 14 15 14 13 13 14 14 14 15 15 15 15 17
22 22 22 22 21 22 22 22 22 22 22 23 23 22 20 20 20 20 20 20 20 20 19 19 19 18 19 20 20 19 19 20 19 20 20 19 19 19 19 19 19 19 19 19 18 18 18 17 17 16 16 15 15 14 14 13 13 13 13 13 13 13 13 12 12 13 13 13 13 13 13 13 14 14 14 14 14 13 13 14 14 14 15 15 15 16
21 22 22 22 21 22 22 22 21 22 22 23 22 21 20 20 19 19 20 20 20 20 20 19 19 19 19 20 20 20 20 20 19 19 20 19 19 18 18 18 19 19 18 18 18 18 18 17 16 16 15 15 15 14 14 13 13 13 13 13 13 13 12 12 12 12 12 13 13 13 13 13 13 14 14 14 14 13 13 13 14 14 14 14 14 15
20 20 21 21 21 22 22 21 21 21 22 22 22 21 20 20 19 19 19 20 20 20 20 19 18 19 19 18 19 20 19 19 19 19 19 19 19 18 19 19 19 19 18 19 18 18 17 16 16 15 15 15 14 14 13 13 13 13 13 13 12 12 12 12 12 12 12 12 12 12 12 13 13 13 13 14 14 13 13 13 13 14 14 13 14 14
20 20 21 21 21 22 21 21 21 21 21 22 22 21 20 20 20 19 19 19 19 19 20 19 19 20 19 19 19 20 19 19 19 19 19 18 18 18 18 18 19 19 19 19 18 17 17 16 16 15 15 15 14 14 13 13 13 13 13 12 12 12 12 12 12 11 12 12 12 12 12 12 12 13 13 13 13 13 13 13 13 13 13 13 13 13
20 20 21 21 21 21 21 21 21 20 20 21 21 21 20 20 20 19 18 18 17 18 19 19 19 20 20 19 19 19 19 19 19 19 19 18 18 18 18 18 19 19 19 19 18 17 17 16 16 15 15 15 14 14 13 13 13 13 13 12 12 12 12 11 11 11 12 12 12 12 12 12 12 12 13 13 13 13 13 14 13 13 12 13 13 13
20 20 21 21 21 20 20 20 20 20 20 21 20 20 20 20 20 19 19 18 18 19 19 19 19 20 20 19 19 19 19 19 19 19 19 19 18 18 18 18 18 19 19 18 18 17 17 16 16 15 15 14 14 14 13 13 13 13 12 12 12 12 11 11 11 11 11 12 12 12 12 12 12 12 12 12 13 13 13 13 14 13 12 12 13 13
20 20 20 21 21 20 20 20 20 20 21 21 20 20 20 19 19 20 19 18 19 19 19 19 19 20 20 19 19 19 19 19 19 19 19 19 19 19 19 19 18 18 18 17 17 17 17 16 16 15 14 14 14 14 13 13 13 13 12 12 12 12 11 11 11 11 11 11 11 11 11 11 12 12 12 12 12 12 13 13 14 14 13 12 12 13
20 20 20 21 21 21 21 21 20 20 20 20 20 20 20 19 19 19 19 19 19 19 19 19 19 20 20 20 20 20 19 19 19 19 19 19 19 19 19 19 19 18 17 17 17 17 17 16 15 15 14 14 14 14 13 13 13 13 12 12 12 12 11 11 11 11 11 11 11 11 11 11 11 11 11 12 12 12 12 13 13 13 13 13 13 12
20 20 19 20 21 20 20 20 20 20 20 20 20 20 20 19 19 19 19 19 19 19 19 18 19 20 20 20 20 20 20 20 20 19 19 20 20 19 19 19 19 18 17 17 17 17 16 16 15 14 14 14 14 14 13 13 13 13 12 12 12 12 11 11 11 11 11 11 11 10 11 11 11 11 11 11 12 12 12 12 12 13 13 13 13 13
20 20 20 20 20 20 20 19 19 19 19 20 20 20 20 20 19 19 19 19 19 19 18 18 18 19 20 20 20 20 20 20 20 20 20 20 20 19 19 19 18 18 17 17 17 17 16 16 15 14 14 14 14 14 13 13 13 13 12 12 12 12 11 11 11 11 11 11 11 10 11 11 11 11 11 11 11 12 12 12 12 12 12 13 13 13
19 20 20 20 20 20 19 19 18 19 19 19 19 20 20 19 19 19 19 19 19 19 18 18 18 19 19 19 19 19 19 20 20 20 20 20 20 19 19 19 18 17 17 16 16 17 16 15 15 14 14 15 14 14 14 13 13 13 13 12 12 12 11 11 11 11 11 11 11 11 10 11 11 11 11 11 12 12 12 12 12 12 12 13 13 14
19 20 20 20 20 20 20 19 18 18 19 19 19 19 19 19 19 19 19 19 19 19 19 18 18 19 19 19 19 19 19 19 19 19 19 19 19 19 19 19 18 17 17 16 16 16 16 15 15 15 15 15 14 14 14 14 13 13 13 12 11 11 11 11 11 11 11 11 11 11 10 10 11 11 11 11 11 12 12 12 12 12 12 13 13 13
19 20 20 19 20 19 19 18 18 18 18 19 19 19 18 18 17 17 18 18 18 19 18 18 18 20 19 19 19 19 19 19 19 19 19 19 19 19 19 18 18 17 17 16 16 16 16 15 15 15 15 15 15 14 14 13 13 13 12 12 11 11 11 11 11 11 10 10 10 11 10 10 10 11 11 11 11 11 11 12 12 12 12 12 13 13
20 20 20 19 19 19 18 18 18 18 19 19 19 18 17 16 16 16 18 18 18 18 18 18 19 20 20 20 19 19 19 19 19 19 19 19 19 19 19 18 18 17 17 16 16 16 15 15 15 15 15 15 15 14 14 13 13 13 12 12 11 11 11 11 10 10 10 10 10 10 10 10 10 10 10 11 11 11 11 12 12 12 12 12 12 12
20 20 20 19 19 19 19 19 19 19 18 18 18 18 17 16 15 16 17 18 18 18 18 19 19 19 19 20 20 19 19 19 19 19 18 18 19 18 18 18 17 17 17 16 16 15 15 15 15 15 15 15 14 14 13 13 13 13 12 12 12 11 11 10 10 10 10 10 10 10 10 10 10 10 10 11 11 11 11 11 11 12 12 12 12 12
20 19 19 19 19 19 19 19 19 19 18 17 17 17 16 15 13 14 16 17 16 17 18 19 18 17 18 20 20 19 19 19 19 19 19 19 19 19 18 18 17 17 17 16 16 15 15 15 15 15 15 14 14 13 13 13 13 13 12 12 12 12 11 11 10 10 10 10 10 9 9 9 9 10 10 10 11 11 11 12 12 12 12 12 12 12
19 19 19 19 19 19 19 19 19 19 18 18 17 16 15 14 13 14 15 16 16 17 18 17 17 17 18 20 20 19 19 19 19 19 19 19 18 18 18 18 17 17 17 17 16 15 15 15 15 15 14 14 14 13 13 13 13 12 12 12 12 12 12 11 10 10 10 10 10 9 9 9 9 10 10 10 11 12 12 12 12 12 12 12 12 12
19 19 19 19 19 19 19 19 19 18 18 18 18 18 15 13 12 13 14 14 14 14 15 16 16 16 18 20 20 19 19 19 19 19 18 18 18 18 18 18 18 18 18 17 16 16 15 15 15 15 14 14 14 13 13 13 12 12 12 12 12 12 12 11 10 10 10 10 9 9 9 10 10 10 10 10 11 12 12 12 12 12 12 11 11 11
19 18 19 18 18 19 19 19 18 18 18 18 18 17 14 11 11 11 11 11 12 12 13 13 14 16 19 20 20 19 19 18 18 18 18 18 18 18 18 18 18 18 18 17 17 16 16 16 15 15 15 14 14 13 13 13 12 12 12 12 12 12 12 11 10 10 10 10 9 9 9 9 10 10 10 11 12 12 12 12 12 12 12 11 10 10
19 19 19 18 18 18 19 19 18 19 18 17 17 16 13 11 12 12 11 11 12 13 13 13 15 18 20 20 19 18 18 18 18 18 18 18 18 18 18 18 18 18 17 17 17 16 16 16 16 15 14 14 14 13 13 12 12 12 12 12 12 12 12 12 11 10 10 10 10 9 9 9 10 10 10 11 11 11 11 12 12 12 11 11 10 10
19 19 19 18 17 18 19 19 18 19 18 17 17 17 16 14 13 13 12 12 12 14 15 16 19 20 20 20 19 19 19 18 19 19 19 19 19 18 18 18 18 18 17 16 16 16 16 16 15 15 14 14 13 13 12 12 12 12 12 12 12 12 12 12 11 10 10 10 9 9 9 9 9 10 10 11 11 11 11 11 11 11 10 10 10 9
19 19 19 19 18 18 19 19 18 18 17 18 19 19 18 16 15 15 15 15 14 15 17 19 20 20 19 19 19 19 19 19 19 19 19 19 19 18 18 18 18 17 17 16 16 16 16 15 15 14 14 13 13 12 12 12 12 12 12 12 12 12 12 12 11 10 10 9 9 9 8 9 9 10 10 10 10 11 11 11 10 10 9 9 9 9
19 18 19 19 18 18 19 19 17 17 18 19 19 18 18 18 17 17 17 18 17 17 17 18 19 20 20 20 19 19 19 18 18 18 18 18 18 18 18 18 17 17 16 16 16 16 16 15 14 14 14 13 13 12 12 12 12 12 12 12 12 12 12 12 11 10 9 9 8 8 8 9 9 9 9 9 10 11 11 10 9 9 8 9 9 9
19 18 19 18 18 18 18 17 16 17 20 20 18 17 16 17 17 17 18 19 20 19 18 18 19 20 20 20 20 19 18 18 18 18 18 18 18 18 18 18 17 17 16 16 16 15 15 15 14 14 13 13 12 12 12 12 12 12 12 12 12 12 12 12 11 10 9 9 8 8 8 8 9 9 9 9 10 11 10 9 9 9 8 8 9 9
19 19 19 18 18 18 18 18 18 19 19 19 19 18 18 18 18 18 18 19 21 20 19 19 20 20 20 19 19 19 18 18 18 19 19 19 18 18 18 18 17 17 16 16 16 15 15 14 14 13 13 13 12 12 12 12 12 12 12 12 12 12 12 12 11 10 9 9 9 8 8 8 9 9 10 10 10 10 10 9 9 9 8 9 9 9
19 19 19 18 18 18 17 18 18 17 18 19 20 20 19 19 19 19 19 19 20 21 20 20 20 20 20 19 18 18 18 18 19 19 19 18 18 18 17 17 17 16 16 16 15 15 14 14 13 13 13 13 12 12 12 12 12 12 12 12 12 12 12 12 11 10 10 9 9 8 8 8 9 9 10 10 10 9 9 10 10 9 9 9 9 9
19 19 19 18 18 18 17 17 17 17 18 19 19 19 19 19 19 19 18 18 20 21 20 20 20 20 19 18 18 18 18 18 19 19 18 18 18 18 17 17 17 16 16 15 15 15 14 13 13 13 13 13 12 12 12 12 12 12 12 12 12 12 12 11 10 10 10 9 9 9 8 8 8 9 9 9 9 9 9 10 10 10 10 10 10 10
18 18 18 18 18 18 17 17 18 18 19 19 19 19 19 18 18 18 17 18 20 21 20 20 20 19 19 18 18 18 18 19 19 18 17 18 18 17 17 17 17 16 16 15 15 14 14 13 13 13 13 13 12 12 12 12 12 12 12 12 12 11 11 11 10 10 10 10 9 9 9 9 8 8 8 8 9 9 9 9 9 9 10 10 10 10
18 18 18 18 18 18 17 16 17 18 18 18 18 18 18 18 17 17 17 19 20 21 20 20 20 19 19 18 18 19 19 19 18 17 17 17 17 17 17 17 16 16 16 15 14 14 14 13 13 13 13 12 12 12 12 12 12 12 12 12 11 11 11 11 11 10 10 10 10 9 9 9 9 8 8 8 8 9 9 9 9 9 10 10 10 10
18 18 18 18 18 18 17 16 16 17 17 16 16 17 17 17 17 17 18 20 21 20 20 20 19 19 19 19 19 19 20 19 18 17 17 17 17 17 17 17 16 16 15 15 14 14 14 14 13 13 13 12 12 12 12 12 12 12 12 12 11 11 11 10 11 11 11 10 10 10 9 9 9 9 9 9 9 9 9 10 10 9 9 10 10 10
18 17 18 18 17 17 17 16 15 16 16 16 16 17 17 18 18 19 19 20 20 20 20 20 19 19 19 19 19 19 19 18 18 17 17 17 17 17 17 17 16 16 15 14 14 14 14 14 13 13 13 12 12 12 12 12 12 12 12 11 11 11 10 10 11 11 10 10 10 10 10 9 9 9 9 9 9 10 10 10 10 10 10 10 10 10
18 17 17 18 18 17 17 16 17 17 18 17 17 18 18 19 19 19 19 19 20 20 20 20 20 19 19 19 19 19 19 19 18 17 17 17 17 17 17 17 16 16 15 15 14 14 14 14 14 13 13 13 12 12 12 12 12 12 12 11 11 11 11 11 11 11 10 10 10 10 10 10 9 9 9 10 10 10 10 10 10 10 10 10 10 11
18 17 17 17 18 18 18 18 19 19 19 19 18 18 19 19 18 18 18 19 19 20 20 20 20 20 19 19 19 19 19 19 18 18 17 17 17 17 17 17 16 16 16 15 15 14 14 14 14 13 13 13 12 12 12 12 12 12 11 11 11 11 11 11 11 11 10 10 10 10 10 10 10 9 10 10 10 10 10 10 10 10 10 10 10 11
18 17 17 17 18 18 18 18 19 18 19 19 19 19 19 19 19 19 18 18 19 20 20 20 20 20 19 19 19 19 19 19 18 18 17 17 17 17 17 17 16 16 15 15 15 14 14 14 14 13 13 13 12 12 12 12 12 12 11 11 11 11 11 11 11 11 11 10 10 10 10 10 10 10 10 10 10 10 10 10 10 10 10 10 10 10
18 17 17 17 17 17 17 18 18 18 18 19 19 19 19 19 19 19 18 18 19 19 20 20 20 20 19 19 19 19 19 19 18 18 18 17 17 17 17 17 16 16 15 15 15 14 14 14 14 14 14 13 13 13 12 12 12 12 11 11 11 11 11 11 11 11 11 10 10 10 10 10 10 10 10 10 10 10 10 10 10 9 9 9 9 10
17 16 16 17 17 17 18 19 19 19 19 19 19 19 19 19 20 20 19 18 18 19 19 19 19 19 19 19 19 19 19 19 18 18 18 17 18 18 17 17 16 16 15 15 14 14 14 14 14 14 14 13 13 13 12 12 12 11 11 11 11 11 11 11 11 11 11 10 10 10 10 10 10 10 10 10 10 10 10 9 10 9 8 8 7 8
17 15 17 17 17 17 18 19 20 19 19 20 20 20 20 20 20 20 19 19 19 18 18 18 19 19 19 19 19 19 19 19 18 18 18 18 18 18 17 17 16 16 15 15 14 14 14 14 14 14 14 14 13 13 12 12 12 11 11 11 11 11 11 11 11 11 11 11 11 11 11 10 10 10 10 10 10 9 9 8 8 9 8 7 6 6
16 16 18 18 17 17 18 19 19 19 18 19 20 20 20 20 19 19 19 19 19 18 18 18 18 18 19 19 19 19 19 19 18 18 18 18 18 18 17 17 16 16 15 15 14 14 14 14 14 14 14 14 13 13 12 12 12 12 11 11 11 11 11 11 11 11 11 11 11 11 11 11 11 10 10 10 10 10 9 7 7 8 7 6 6 5
17 17 18 18 17 18 19 19 19 18 18 19 19 19 20 20 19 19 19 19 19 19 18 18 18 18 18 18 19 19 19 19 19 18 18 18 18 17 17 16 16 16 15 15 14 14 14 14 14 14 14 13 13 13 13 12 12 12 12 11 11 11 11 11 11 11 12 12 11 10 10 11 11 11 11 11 11 11 10 9 8 7 7 7 6 6
Height
783 789 792 791 792 790 791 791 791 792 794 794 795 796 796 798 798 796 799 800 797 801 803 802 804 804 806 808 809 810 812 814 818 820 821 822 824 825 826 828 831 833 835 838 840 840 840 840 840 840 839 839 838 837 836 835 833 832 830 829 827 825 823 820 817 814 811 808 805 802 800 798 796 794 794 794 793 794 796 798 801 805 808 810 811 812
786 793 795 792 793 793 794 795 794 795 796 796 796 796 796 797 798 797 800 801 798 804 807 804 805 805 805 807 809 810 814 817 818 820 820 821 823 824 826 829 831 833 835 838 840 840 840 840 840 840 839 839 838 837 836 835 833 832 830 829 827 826 824 821 819 816 812 809 806 803 800 798 795 793 793 792 792 792 794 797 800 803 806 808 809 810
794 797 798 796 795 795 796 795 795 797 798 797 796 798 799 796 797 799 800 801 799 805 809 806 807 808 806 807 809 811 813 815 816 818 819 820 823 825 827 830 832 834 836 838 839 840 840 839 839 839 839 839 838 837 836 835 833 832 830 829 828 826 824 822 820 817 814 810 807 804 801 798 796 794 792 792 791 792 794 796 799 802 804 806 808 809
800 801 799 798 796 795 797 797 797 797 796 797 798 801 800 797 802 805 803 802 800 803 807 805 808 811 810 811 812 811 811 813 816 818 818 820 822 824 827 830 833 836 838 838 838 839 839 839 839 838 839 838 838 837 836 835 833 831 830 829 827 826 824 822 820 817 814 811 807 804 801 798 796 795 793 793 793 793 794 795 798 801 803 805 807 808
801 802 799 800 798 795 798 799 798 799 796 796 800 803 800 799 803 804 804 804 802 804 804 806 815 815 811 814 814 811 812 815 818 819 820 821 822 824 827 830 832 834 837 837 837 838 838 838 838 838 838 838 837 837 836 834 833 832 830 829 827 826 824 822 820 818 815 811 808 805 801 799 797 796 795 794 794 794 793 794 796 800 802 804 805 807
802 803 801 801 798 795 798 800 801 804 800 797 801 805 804 804 804 803 804 806 808 811 805 809 826 820 808 811 813 811 815 819 819 819 821 822 822 825 827 830 832 832 834 836 836 837 838 838 838 838 838 838 837 837 836 835 833 832 830 829 827 826 824 823 821 818 815 812 809 807 803 801 799 798 797 796 795 795 794 793 795 798 801 803 805 807
802 803 801 799 799 799 800 802 805 806 804 804 805 806 806 807 806 805 805 808 811 813 808 809 822 820 810 810 809 809 815 820 822 822 823 824 822 824 826 828 830 832 833 835 836 837 837 838 837 838 838 837 838 837 836 835 833 832 831 829 828 826 824 823 821 819 816 813 811 809 806 804 802 800 799 798 797 796 795 794 796 797 799 803 806 806
802 802 803 800 800 801 801 805 808 806 806 807 807 807 807 807 807 805 804 807 805 808 812 810 814 820 817 810 806 809 814 820 825 825 827 828 824 822 825 827 829 831 832 834 835 836 837 838 837 838 838 837 838 837 836 835 833 832 831 829 828 826 824 823 822 819 817 815 812 810 807 805 804 802 800 798 797 797 796 796 797 797 797 801 805 805
803 804 806 803 803 802 803 808 809 807 808 808 807 808 807 807 806 803 804 803 800 810 817 807 813 826 820 809 808 810 813 818 822 823 824 827 823 820 823 827 828 830 831 832 834 835 836 838 838 838 838 838 838 837 836 834 833 832 830 829 828 826 824 823 822 820 818 816 813 811 809 806 804 803 801 799 798 798 798 797 797 797 797 800 804 805
805 806 806 804 805 804 807 810 809 810 810 807 809 808 806 806 803 803 804 800 803 819 819 806 817 830 818 808 811 814 814 811 811 815 818 821 820 818 821 825 827 828 830 832 834 835 837 837 838 838 837 838 838 837 837 835 833 832 830 829 827 826 824 823 822 820 818 816 814 812 810 808 806 804 802 801 799 798 798 798 797 797 798 800 801 803
806 806 805 806 809 808 808 810 810 812 810 809 810 806 805 805 803 804 803 802 812 821 815 811 822 831 824 813 808 813 815 809 807 811 814 816 816 817 821 823 824 826 828 831 833 834 836 837 837 837 837 837 838 837 836 835 833 832 830 828 827 826 824 823 822 820 818 817 815 813 811 809 808 805 804 802 800 799 798 798 798 798 799 799 799 800
805 806 807 809 811 809 809 809 809 809 808 809 807 804 808 808 806 809 807 813 824 820 814 815 820 828 830 819 808 812 815 811 811 813 814 817 817 818 820 821 823 825 827 829 831 832 835 836 836 837 837 837 837 837 836 835 833 832 830 828 827 826 824 823 821 820 819 817 815 814 812 811 809 807 805 803 802 801 799 799 799 799 799 799 800 800
806 806 808 809 810 809 810 809 805 804 803 803 800 804 814 811 813 820 815 816 820 815 814 817 820 827 824 814 809 812 813 811 813 813 814 816 817 819 822 823 824 826 828 829 830 832 834 835 836 836 837 837 837 836 835 835 833 831 830 828 827 825 824 823 821 820 818 817 816 814 813 812 810 808 806 805 804 802 801 800 800 800 800 801 801 802
811 809 807 810 812 808 809 810 809 807 804 804 804 811 818 817 826 833 822 816 817 813 814 817 822 824 817 812 812 810 810 811 812 813 813 815 818 821 824 825 826 826 828 829 830 832 834 835 836 837 837 837 836 836 835 834 833 831 830 828 827 825 824 823 821 820 818 817 816 815 814 812 811 809 808 807 805 804 803 802 802 802 802 803 804 804
819 820 813 813 814 809 811 813 814 813 808 809 809 811 814 816 828 833 822 818 818 812 813 820 824 821 819 819 813 809 810 811 812 813 814 817 819 821 822 823 825 825 827 828 829 832 834 835 837 837 837 837 836 836 835 834 833 831 830 828 827 825 824 823 821 820 818 817 816 815 814 813 812 811 809 808 807 806 805 804 804 804 803 804 805 806
820 822 815 814 812 810 814 814 813 815 814 811 807 809 814 813 820 827 826 826 826 819 815 819 819 811 812 815 809 809 813 812 813 814 815 820 821 821 823 824 825 825 826 827 829 831 834 836 836 836 836 836 836 836 835 834 832 831 830 828 827 826 824 823 821 820 818 817 816 815 814 813 812 811 810 809 808 807 807 806 805 805 805 805 805 805
820 819 814 814 814 813 815 814 813 818 820 813 808 812 816 813 816 824 830 831 833 830 820 816 814 805 804 811 810 811 814 813 815 816 816 820 822 823 824 823 824 824 824 826 828 831 833 835 836 836 836 836 835 835 834 833 832 830 830 828 827 826 824 823 821 820 818 817 816 815 814 813 812 811 810 809 809 808 807 806 806 806 805 805 804 803
821 820 815 815 818 817 815 815 815 816 817 815 814 816 816 817 818 821 828 830 827 826 819 817 820 811 808 815 814 812 814 815 815 815 817 818 820 823 823 823 824 824 825 827 828 831 833 834 835 835 836 836 835 835 833 833 831 830 829 828 827 825 824 823 821 819 818 816 815 814 813 813 812 811 810 810 809 808 807 807 806 806 805 805 804 802
821 822 817 813 817 817 814 817 820 817 814 814 817 817 819 824 823 820 827 831 827 827 822 821 821 812 810 815 814 812 814 814 814 814 815 816 818 820 820 821 824 825 827 828 829 831 832 833 834 835 836 835 834 834 833 832 831 830 829 827 826 825 823 822 821 819 818 816 815 814 813 812 811 811 810 809 808 808 807 806 806 805 805 804 803 803
820 824 822 814 814 816 814 817 821 818 816 815 815 814 817 823 824 821 823 825 827 828 825 824 820 808 806 810 809 809 810 810 813 814 813 814 815 816 817 819 821 823 826 827 828 830 831 833 834 835 836 835 833 833 832 831 830 829 828 827 825 824 823 822 821 819 818 816 815 814 812 811 810 810 809 808 808 807 806 805 805 805 804 804 804 804
819 825 824 816 815 819 818 817 817 818 819 818 816 817 817 821 824 823 821 821 826 828 826 829 823 807 805 808 806 807 807 805 809 811 811 812 812 814 816 818 820 823 825 827 827 829 831 833 834 835 835 834 833 832 831 830 829 828 827 826 824 823 822 821 820 819 818 816 815 814 812 811 809 809 808 807 807 806 805 805 804 804 804 803 803 804
820 822 823 818 815 818 819 819 818 820 821 820 818 818 818 821 825 825 824 822 824 827 828 833 828 812 806 808 807 807 807 804 805 808 810 810 811 814 816 818 821 823 825 827 828 829 831 832 833 834 834 833 832 831 830 829 828 827 826 825 823 822 821 820 819 818 817 816 815 814 812 811 809 808 807 806 806 805 804 803 803 803 802 802 802 803
821 820 821 819 815 816 819 820 821 822 822 822 821 818 818 822 824 826 827 824 823 825 825 828 828 815 807 808 809 810 809 806 805 806 808 810 811 813 815 817 821 823 824 826 827 829 831 832 833 833 832 832 831 830 829 828 827 827 825 824 823 822 821 820 818 817 816 815 814 813 812 810 809 807 806 805 804 804 803 802 802 802 801 801 801 802
823 822 821 820 815 815 818 820 821 822 823 823 821 819 821 824 825 826 826 825 825 823 823 826 825 814 808 809 809 810 811 809 808 808 808 810 811 813 815 816 820 822 824 826 827 829 830 832 832 832 831 830 830 829 828 827 827 826 825 824 823 822 821 819 818 817 815 815 813 812 811 810 809 807 806 804 803 803 803 802 801 801 800 800 800 800
824 822 822 824 822 822 824 826 827 827 825 821 819 822 825 828 832 830 825 825 826 822 824 832 825 809 806 809 808 809 811 810 810 810 810 811 812 813 814 816 819 821 823 825 826 828 830 831 831 830 830 829 829 828 827 828 827 826 825 825 823 822 821 819 817 816 815 814 813 811 811 810 808 807 806 805 804 803 802 801 801 800 799 799 799 799
821 821 822 827 829 831 832 830 828 827 823 819 820 825 828 832 837 834 827 825 826 824 826 829 821 807 802 805 807 809 810 810 810 810 811 812 812 813 813 816 818 820 822 823 825 827 828 829 830 830 830 829 828 827 827 828 827 825 825 824 823 822 820 819 817 816 815 814 812 811 810 809 808 807 806 805 804 803 802 801 800 800 799 799 798 798
820 821 821 824 826 827 827 824 820 822 824 825 826 827 827 831 837 836 830 826 826 826 822 816 815 816 811 805 806 808 809 811 810 810 811 812 812 812 813 815 818 819 820 822 824 826 827 828 829 829 829 829 828 828 828 828 827 826 825 823 822 821 820 819 817 815 814 813 812 811 810 809 808 807 806 805 804 803 802 801 801 800 799 798 798 797
822 823 822 824 825 822 821 819 818 821 826 829 831 830 831 836 842 842 834 829 830 830 822 814 816 823 816 805 805 808 808 809 810 809 810 810 810 811 812 815 817 818 819 821 823 825 826 827 828 828 828 829 828 829 829 828 826 826 825 823 822 821 819 818 817 815 814 813 812 811 810 809 808 807 806 805 804 803 802 801 801 800 799 798 797 797
822 824 822 824 825 822 819 818 818 820 822 823 827 831 835 840 844 842 834 830 832 830 824 820 822 822 815 806 805 806 806 808 808 807 808 809 809 811 811 814 815 815 817 819 821 824 825 826 827 827 828 828 828 828 828 827 827 826 825 824 821 820 819 818 817 815 814 813 812 811 810 809 808 806 805 804 803 803 802 801 801 800 799 798 797 796
821 823 822 824 825 821 819 818 818 819 820 820 820 822 832 841 843 842 837 835 838 836 829 827 827 823 812 805 804 804 804 807 807 807 809 809 810 810 811 812 812 812 814 816 819 822 824 825 826 826 826 826 827 828 827 827 827 826 825 823 821 820 818 817 817 815 814 813 812 811 810 809 808 807 806 804 803 802 802 801 800 799 799 798 797 796
822 825 822 823 825 821 817 818 818 818 819 821 820 822 835 847 848 849 849 846 845 842 836 836 835 823 807 800 802 804 805 807 808 808 809 808 808 809 809 810 810 810 812 815 818 821 822 824 825 825 825 826 826 827 827 827 827 826 824 823 821 820 818 817 817 815 814 813 812 811 810 809 808 807 806 805 803 802 802 801 800 799 798 798 797 796
821 823 820 823 828 822 816 818 819 816 817 821 823 826 836 844 842 842 845 843 838 836 837 838 829 812 799 798 802 804 805 807 807 807 807 807 807 808 808 808 808 809 812 815 817 819 821 822 824 825 826 826 826 827 827 826 826 825 824 822 821 820 818 817 816 815 814 813 812 811 810 809 808 807 806 805 804 803 802 801 800 799 798 798 797 797
816 820 819 824 830 823 814 817 818 816 819 822 819 817 822 831 834 834 835 835 833 831 829 822 808 799 798 800 802 803 804 805 804 804 804 804 805 807 808 808 807 809 812 815 817 819 820 822 823 825 825 826 826 826 827 826 826 825 823 822 821 819 818 817 816 815 815 813 813 812 810 810 809 808 807 806 804 803 802 801 800 799 799 798 798 797
815 819 819 820 827 824 814 813 818 822 825 820 809 805 809 816 822 825 823 823 823 821 813 804 798 798 800 800 800 801 801 802 802 802 803 804 804 805 806 807 808 810 813 815 817 818 820 822 824 825 825 825 826 826 827 826 825 825 823 822 820 819 817 816 816 816 815 814 813 813 811 810 809 808 807 806 805 804 802 801 801 800 800 799 798 798
816 819 818 819 824 822 813 817 829 830 819 808 803 805 808 809 810 813 811 806 808 811 808 803 799 796 795 797 798 798 800 802 802 803 804 804 804 805 806 806 808 811 813 815 817 818 820 822 824 825 825 825 826 826 826 825 825 824 822 821 820 819 817 816 816 816 816 815 814 813 812 811 810 809 808 807 806 804 803 803 802 801 801 800 799 799
815 818 818 818 820 819 818 828 835 823 804 799 805 810 811 811 811 812 809 800 797 801 803 801 797 792 792 795 796 797 801 803 802 801 801 803 804 804 805 806 808 811 813 814 816 818 820 822 823 825 825 826 826 825 825 825 825 824 822 821 820 819 817 816 816 816 816 816 815 814 813 812 811 810 809 807 806 805 804 804 803 802 802 801 800 799
811 814 816 818 820 819 821 822 819 812 805 803 804 805 805 806 805 807 807 798 790 792 796 796 794 791 791 795 797 798 801 803 801 797 796 800 803 804 805 806 808 811 812 814 816 818 820 822 824 825 826 825 825 825 825 825 824 823 821 820 820 819 817 816 816 817 817 816 815 815 814 813 812 811 809 808 807 806 805 804 803 803 802 801 801 800
808 810 813 818 820 819 822 821 818 820 817 805 798 798 798 799 798 800 804 799 789 788 791 792 792 791 792 796 799 799 802 804 800 793 794 799 801 803 806 807 808 811 813 814 816 818 820 822 823 825 825 825 825 825 825 825 824 822 821 820 820 819 818 817 818 818 817 816 816 815 814 814 812 811 810 809 808 807 806 805 804 803 803 802 801 800
809 807 808 816 819 818 822 824 822 822 816 804 799 799 797 799 799 799 805 803 792 787 790 790 791 792 793 796 799 799 802 802 797 793 797 800 801 803 806 807 809 811 812 814 816 817 819 821 822 823 824 824 824 825 825 824 823 822 821 820 820 819 819 818 818 818 817 817 816 815 815 814 813 812 811 810 809 808 807 806 805 804 803 802 801 800
812 812 811 815 817 816 819 820 815 811 807 802 800 799 798 800 801 807 815 808 792 787 789 790 791 793 793 796 798 798 799 798 795 796 799 800 802 804 805 806 809 811 812 814 816 817 819 821 821 822 822 823 824 824 824 824 822 821 821 821 820 820 819 819 819 818 818 817 816 816 815 814 814 813 812 811 810 809 808 807 806 805 803 802 801 801
813 814 813 814 812 811 818 822 817 808 804 802 802 801 801 802 806 815 815 801 788 788 789 789 791 792 793 796 796 794 793 794 796 799 800 801 803 804 805 806 808 810 811 813 815 817 819 819 820 821 822 823 824 823 824 823 821 821 821 820 820 821 820 820 819 818 818 817 816 816 815 814 814 813 812 812 811 810 808 807 806 805 804 802 802 801
813 813 812 812 812 810 813 821 822 815 808 808 807 804 803 806 811 812 802 790 788 789 789 789 790 790 792 794 793 791 791 794 797 799 800 801 802 803 805 807 808 810 812 813 815 817 818 818 820 821 821 822 823 823 823 823 822 821 821 820 821 821 821 820 819 818 817 817 816 816 815 815 814 813 812 812 811 810 808 807 806 806 804 803 802 801
811 814 811 809 812 813 815 822 826 820 810 807 807 806 805 806 804 800 794 790 790 789 789 790 790 789 791 792 791 792 792 794 798 799 800 801 802 803 805 806 807 810 811 813 815 816 817 818 819 819 820 821 822 822 822 822 822 821 820 821 822 822 821 821 820 819 818 818 817 816 815 815 814 814 813 812 811 809 808 807 806 806 805 804 802 801
807 811 810 807 808 812 815 815 814 809 803 802 803 802 800 798 796 795 795 793 790 789 789 789 788 789 790 789 790 791 792 794 797 798 799 801 801 802 804 806 807 809 810 811 813 815 816 817 817 818 819 820 821 822 821 822 821 821 821 822 822 822 821 820 820 820 819 819 818 816 815 815 815 814 813 812 811 810 809 808 807 806 805 804 803 802
805 806 809 808 805 806 806 802 797 796 796 797 799 797 795 795 795 795 795 793 790 789 787 786 787 788 789 789 789 790 791 792 795 796 798 799 800 802 803 805 806 808 809 810 812 814 815 816 816 818 818 819 821 821 820 821 821 821 821 822 822 821 821 820 820 820 819 819 818 817 816 815 815 814 813 812 811 811 810 809 808 807 806 805 804 803
803 806 807 806 804 802 800 796 794 795 795 794 795 795 794 794 793 792 793 792 789 787 785 785 786 786 787 788 788 789 790 791 792 795 797 797 799 800 802 804 805 807 808 810 811 813 814 815 816 817 817 818 819 820 819 820 821 820 821 821 821 821 821 821 820 820 819 819 819 818 817 816 815 815 814 813 812 811 810 810 809 808 807 806 805 804
802 807 806 805 806 807 803 796 794 795 795 793 792 791 790 791 790 789 791 791 788 786 785 784 784 785 786 787 787 787 788 789 791 794 795 796 797 799 801 803 804 806 808 809 810 812 813 814 815 815 816 817 817 818 819 819 819 820 820 821 821 821 821 821 820 819 819 819 819 818 818 817 816 815 815 814 813 812 811 811 810 809 808 807 806 805
803 809 806 803 804 804 800 793 789 790 791 789 789 789 788 788 787 786 787 788 787 786 785 784 784 785 785 785 786 786 787 788 790 792 793 794 796 797 799 801 803 805 807 808 809 811 812 813 813 813 814 815 816 817 818 818 818 819 820 820 820 820 820 820 820 820 819 819 818 818 818 817 817 816 815 815 814 814 813 812 811 811 811 810 809 808
805 810 805 801 802 800 794 788 786 788 788 785 784 785 785 785 785 785 785 785 784 784 784 784 784 784 783 784 784 785 786 787 788 790 791 793 794 796 798 800 801 803 805 807 808 810 810 811 812 812 813 814 814 816 817 817 818 818 819 819 820 819 819 820 820 820 819 818 818 818 817 817 817 816 816 815 815 815 815 814 813 813 813 812 811 810
806 806 799 798 801 798 792 787 786 790 791 785 782 784 784 783 784 784 783 783 782 782 782 782 782 783 783 783 783 783 785 785 787 789 790 791 793 795 797 798 800 802 804 805 807 808 809 810 811 811 812 813 813 815 816 816 817 817 818 818 819 819 819 819 818 819 818 817 817 817 817 816 816 816 816 815 815 815 815 815 815 814 814 814 813 811
801 800 796 796 797 793 788 786 786 789 791 786 783 783 782 781 782 782 781 780 779 779 779 779 779 780 781 782 782 783 783 783 785 788 789 790 792 794 796 798 799 801 802 804 805 806 807 809 809 810 811 812 812 814 815 815 816 816 817 817 818 818 818 818 817 817 817 816 817 817 817 816 816 816 816 815 815 815 814 814 815 815 814 814 813 812
Wind_Speed
4 5 4 1 2 3 3 3 4 4 2 4 3 4 4 5 3 1 2 2 2 5 2 2 4 5 10 13 13 12 11 9 10 10 9 9 8 7 7 7 7 6 6 6 4 4 4 5 6 7 9 10 11 12 14 15 16 16 17 17 17 17 17 17 17 17 15 15 16 16 14 11 10 10 10 10 15 21 21 27 32 36 36 28 22 19
5 4 3 4 5 5 4 2 2 1 1 3 5 5 4 4 2 2 2 2 3 5 2 3 5 5 8 11 12 12 12 11 11 11 10 10 8 7 7 7 6 5 5 4 3 2 3 4 6 7 8 10 11 12 13 15 16 16 17 18 17 17 17 17 17 17 15 15 17 17 15 11 9 9 7 9 13 19 21 26 33 34 34 28 22 17
5 1 6 6 4 4 3 2 1 0 2 3 4 5 4 3 2 2 4 4 3 4 2 4 5 4 7 9 11 12 11 10 11 11 10 10 9 8 7 7 6 4 4 3 2 1 2 4 5 7 8 9 10 11 13 14 15 16 17 18 17 17 17 17 17 17 16 16 17 16 14 10 8 8 5 6 9 17 20 24 30 30 30 30 24 20
3 4 7 4 2 3 4 3 2 2 3 3 3 5 4 2 4 3 4 4 4 3 3 5 5 3 6 7 9 10 10 9 9 10 10 9 9 8 8 7 6 5 3 3 2 1 1 3 5 7 8 9 10 11 12 14 15 16 17 18 17 16 16 17 17 17 17 16 17 16 13 9 7 7 4 2 5 14 20 24 27 25 25 26 24 23
7 7 4 1 2 2 3 3 1 4 3 2 2 6 6 4 5 4 1 3 4 3 4 5 4 4 7 8 9 9 9 9 10 11 10 9 8 8 8 7 6 6 5 3 2 0 2 3 5 7 8 9 10 11 12 13 15 16 17 18 17 16 15 17 18 18 17 15 16 16 14 11 7 5 3 2 2 8 18 26 27 23 22 22 21 22
8 5 1 2 4 2 2 1 2 4 5 2 1 3 7 6 6 5 3 4 5 4 4 5 5 4 7 9 9 9 10 10 11 12 11 9 9 8 7 7 6 5 5 3 1 1 2 3 5 6 8 10 11 11 11 12 14 15 17 17 16 16 15 16 17 17 17 14 14 15 14 13 10 7 4 1 2 2 10 22 25 23 22 19 16 18
5 3 1 2 3 2 2 1 4 4 7 2 3 2 5 6 6 6 6 6 5 2 4 5 6 3 5 8 9 9 11 12 11 10 8 8 9 9 8 7 6 5 5 3 2 2 2 3 5 7 8 9 11 11 12 12 13 15 16 17 16 16 15 16 16 17 16 14 14 14 13 12 12 10 7 3 2 2 7 14 20 22 23 19 14 14
4 4 3 1 2 3 2 2 4 4 7 3 5 3 5 6 7 7 6 7 5 2 3 7 6 6 4 5 8 9 10 11 10 9 8 9 10 10 8 7 7 5 5 4 3 2 1 3 5 6 8 10 10 11 12 12 13 14 16 17 17 16 15 15 16 16 16 15 14 13 12 11 11 11 10 6 1 5 5 7 14 20 22 20 15 13
3 3 2 1 4 3 2 5 5 5 5 4 5 3 4 5 7 6 6 7 4 3 5 6 4 7 5 3 7 7 10 12 12 11 12 12 12 11 9 8 8 6 5 4 3 2 1 2 4 6 8 9 10 10 12 13 14 14 15 16 17 16 15 15 15 15 14 14 13 12 12 11 11 11 10 8 3 5 6 2 8 16 18 19 17 13
4 4 3 3 3 2 6 5 3 4 4 4 2 4 3 4 5 5 6 6 3 5 7 2 2 6 5 2 5 6 9 10 10 10 12 12 12 11 10 9 8 6 5 4 3 2 1 2 3 5 7 9 10 11 12 13 14 14 14 16 17 16 16 15 14 14 14 13 12 12 12 12 11 11 11 9 7 0 8 6 3 8 13 16 18 14
6 3 1 3 4 3 3 2 2 3 3 1 4 5 4 4 3 4 4 3 5 6 4 2 3 4 5 1 2 3 3 5 4 6 8 9 10 10 9 9 8 6 5 4 4 3 1 1 3 5 7 9 11 11 12 13 14 15 15 16 16 17 17 16 15 13 13 12 11 11 11 11 11 10 11 9 9 8 2 9 7 4 6 10 14 14
6 4 2 4 4 2 1 3 3 3 3 4 5 4 4 4 2 4 3 3 6 4 2 3 2 5 6 2 0 2 1 3 4 4 5 8 9 9 9 7 6 5 4 4 4 2 0 2 3 6 8 9 11 12 12 12 13 15 15 16 16 17 17 16 15 13 12 12 11 10 10 10 10 9 9 9 9 11 7 2 6 5 5 6 9 12
5 4 4 4 3 2 4 5 5 6 5 4 4 3 4 4 2 4 3 3 5 1 4 2 1 4 5 1 1 1 3 5 5 4 5 7 9 9 7 4 4 3 3 3 3 1 1 2 4 6 8 9 10 12 12 13 14 15 15 16 17 18 17 16 15 14 11 11 11 10 9 9 9 9 7 8 8 9 10 7 2 3 5 6 7 10
3 5 5 5 3 2 5 5 2 1 2 4 4 4 5 4 3 4 4 3 3 1 3 1 2 4 3 1 2 1 2 4 5 5 5 6 8 9 7 5 5 4 4 4 3 1 1 2 4 6 7 9 10 12 12 13 15 15 15 16 17 17 17 15 15 13 11 10 10 10 9 8 8 8 7 6 7 7 8 8 5 2 2 5 6 7
3 2 2 1 1 2 3 4 5 5 4 3 3 5 5 3 4 5 4 4 4 2 1 2 2 4 2 1 2 2 2 3 4 5 5 6 8 7 7 6 5 5 5 4 2 1 0 2 4 5 7 9 10 11 12 13 15 16 15 16 17 17 16 15 14 13 12 11 10 10 10 9 7 7 7 5 5 6 6 5 5 3 1 2 4 5
6 1 5 4 3 3 4 4 4 6 3 0 2 5 3 3 3 4 3 4 5 5 1 2 2 3 1 2 3 3 4 4 4 6 7 8 8 6 5 5 5 5 5 4 3 1 1 1 3 5 7 9 10 11 12 13 15 16 16 16 17 17 16 15 14 13 12 11 10 10 9 9 8 7 7 6 5 4 4 4 3 2 2 1 1 2
4 1 7 5 3 5 5 4 4 5 3 1 3 2 3 4 5 4 1 0 3 5 2 0 4 3 1 4 6 5 5 6 6 7 8 9 9 7 5 5 5 5 4 3 2 1 1 1 3 5 7 9 10 11 11 12 14 16 16 16 16 16 15 15 14 12 12 11 11 11 10 9 8 7 7 6 6 5 4 3 3 2 2 2 1 1
4 1 6 3 2 5 3 2 4 3 5 4 3 4 2 2 3 3 3 1 3 4 1 1 5 5 2 1 5 7 6 7 7 8 8 9 9 8 6 5 5 4 2 2 1 1 1 1 3 5 8 9 10 11 10 11 14 15 15 16 16 16 15 15 14 13 12 12 11 11 10 10 9 8 7 7 7 6 6 5 4 3 3 3 2 2
3 3 5 4 2 5 3 3 3 4 2 4 2 2 2 3 1 1 2 3 4 4 1 0 4 4 2 1 3 6 7 7 8 8 9 9 9 8 7 7 6 5 3 3 3 3 1 1 3 5 7 9 10 10 9 11 14 14 15 16 15 15 15 14 14 13 12 12 11 11 11 11 9 8 8 8 8 8 7 7 7 5 4 4 2 2
1 3 2 5 2 2 4 5 3 3 4 2 3 2 1 3 4 2 2 3 4 5 3 2 3 1 3 3 2 3 6 8 8 8 8 8 8 7 5 5 5 4 4 4 4 2 1 1 3 5 7 9 10 10 10 11 14 14 15 16 16 15 15 14 13 13 12 11 11 11 11 11 10 9 9 8 8 8 8 8 8 8 6 5 3 2
1 3 1 4 4 3 3 1 2 2 1 1 2 1 1 0 2 2 1 1 3 5 4 3 4 2 5 4 4 2 2 6 7 7 7 7 8 6 5 4 3 2 3 3 2 2 1 1 3 5 7 9 10 10 10 12 14 14 15 16 16 15 15 14 13 12 11 10 10 11 11 11 11 10 9 8 8 8 8 8 8 9 8 8 6 4
2 2 3 1 3 3 1 5 5 3 3 4 3 3 3 2 3 4 1 1 1 4 4 4 5 2 5 4 3 3 2 3 5 6 6 6 7 6 5 4 2 2 2 3 2 2 1 1 4 5 7 9 11 11 11 13 14 14 15 16 16 15 15 15 13 12 11 10 10 10 10 11 10 10 9 8 8 7 8 8 7 8 8 9 9 7
2 3 4 3 2 1 5 6 3 1 1 4 3 3 3 2 3 5 4 2 2 2 2 4 5 2 5 3 3 2 2 3 4 5 6 6 5 5 5 4 3 2 2 3 3 2 1 2 4 5 7 9 11 11 12 13 14 15 16 16 16 15 14 14 13 12 11 11 10 10 10 10 10 9 9 9 7 7 7 7 7 7 7 8 9 10
1 3 3 3 1 2 4 5 3 3 3 5 3 1 2 3 3 5 5 4 4 3 2 4 4 2 5 3 1 1 2 4 4 5 6 5 4 5 5 4 3 3 3 4 4 3 2 2 3 5 7 10 11 11 12 13 14 15 15 15 15 15 14 14 13 12 12 11 11 10 10 10 9 8 8 7 6 5 5 5 6 6 6 6 7 9
2 2 3 4 2 2 4 4 4 4 4 5 2 0 1 1 2 4 3 3 4 3 2 5 5 2 4 3 1 1 2 4 5 6 6 5 5 5 5 4 3 3 4 4 4 3 2 2 3 5 8 10 11 12 12 13 14 14 14 14 14 14 14 14 13 12 12 11 11 10 9 9 8 8 7 6 6 5 5 5 5 6 6 6 7 8
2 3 2 4 4 2 2 2 1 1 2 3 2 2 2 3 3 3 4 4 4 1 0 6 6 4 4 2 0 1 2 4 4 6 7 6 6 6 4 4 3 3 4 4 4 3 2 2 3 5 8 10 12 12 12 12 13 13 14 14 13 13 13 13 13 12 12 11 11 10 10 9 9 8 7 6 6 6 5 5 5 6 6 6 7 8
2 3 2 5 5 4 5 5 4 3 4 4 3 3 3 4 4 4 5 5 4 3 4 5 3 5 8 6 3 2 2 3 4 6 7 7 7 6 5 4 4 4 4 4 4 3 2 2 3 5 9 11 12 11 11 11 12 12 13 14 14 13 12 12 12 12 11 11 10 10 10 9 9 9 8 6 5 5 5 5 6 6 7 7 7 8
4 3 1 3 5 5 7 6 4 4 5 5 4 3 3 4 4 4 7 4 4 5 6 3 3 4 8 7 5 3 3 3 4 5 6 5 5 5 5 4 5 5 5 4 5 4 3 2 3 6 9 11 11 10 10 10 10 11 13 14 15 14 13 12 11 11 11 10 10 10 9 10 10 9 8 6 6 5 5 6 6 7 8 8 8 8
5 4 1 3 6 6 7 7 6 6 6 6 6 5 5 5 6 7 8 5 2 6 7 6 6 8 8 9 7 4 3 3 3 4 4 4 5 4 5 5 6 5 5 5 5 4 3 2 3 6 9 10 9 9 8 9 10 11 12 13 14 15 14 12 11 10 10 10 10 9 9 9 9 8 8 7 7 6 7 7 8 8 8 8 8 8
4 3 1 5 8 6 6 7 6 7 8 7 9 7 5 6 7 7 6 4 2 6 9 8 10 12 11 9 7 3 2 2 2 3 3 5 6 6 6 6 5 5 5 4 3 3 2 1 4 7 9 9 9 8 8 8 9 11 12 13 14 15 14 12 11 10 10 10 10 9 9 9 8 8 8 8 8 8 9 9 9 8 8 8 8 7
3 2 1 4 8 6 5 6 6 6 8 8 9 5 3 4 4 4 3 2 2 5 7 6 9 11 8 4 2 1 2 3 4 5 5 6 6 6 6 5 5 5 4 3 3 2 2 2 5 8 9 8 8 7 7 7 9 10 11 13 13 14 15 12 10 10 10 9 9 9 9 8 8 8 8 8 9 10 10 10 8 8 9 8 8 7
3 3 2 4 7 5 2 5 6 7 9 9 8 5 4 4 2 3 3 5 5 3 2 3 7 7 1 2 1 3 4 5 6 5 5 5 4 5 6 5 5 5 3 3 3 2 2 3 5 7 8 7 7 6 6 7 8 10 11 12 13 14 14 12 11 10 10 8 8 8 8 8 8 8 8 9 9 10 11 9 8 8 8 8 8 7
4 5 4 4 6 5 2 4 7 9 9 6 4 4 5 5 3 2 3 6 8 6 3 3 5 4 3 1 2 3 5 5 5 4 4 4 4 4 5 5 5 3 2 2 2 2 2 3 4 6 7 6 6 6 6 7 8 10 11 12 12 13 13 12 11 11 10 9 8 8 8 8 8 8 8 9 10 10 10 9 8 8 8 8 8 8
5 6 5 4 5 7 5 5 8 9 6 2 1 1 2 4 4 4 5 7 10 10 7 8 7 5 2 3 4 3 3 3 2 2 2 3 4 4 4 4 3 1 2 3 3 2 1 1 3 5 6 6 6 6 6 6 7 9 11 11 11 12 12 12 12 11 10 9 9 8 8 8 8 8 8 9 10 10 9 9 10 9 8 7 8 8
6 6 5 3 5 7 6 6 7 6 4 3 1 0 1 3 4 5 8 9 9 12 13 12 11 10 7 5 4 3 2 0 1 3 3 3 4 4 4 3 2 3 4 4 4 3 2 1 2 4 6 6 6 6 5 6 7 9 10 10 10 11 11 11 12 11 10 10 9 9 8 8 8 9 9 10 10 9 9 10 10 9 8 7 7 7
7 6 5 4 5 6 5 4 4 5 6 3 1 3 1 2 4 5 9 8 6 9 12 11 11 10 7 4 4 2 1 1 3 5 5 4 4 4 4 3 2 4 4 4 4 4 3 1 1 4 5 6 6 5 5 6 7 9 9 9 9 10 10 11 11 11 10 10 9 9 8 8 9 9 10 10 9 9 10 10 10 9 8 7 6 6
8 7 6 5 5 5 6 6 5 7 7 2 3 3 2 2 1 3 6 5 2 4 7 8 9 9 6 3 3 2 2 2 5 5 5 5 3 3 3 2 3 5 5 5 5 4 4 3 2 2 4 6 6 5 5 6 7 8 8 8 8 9 9 10 11 10 10 9 9 8 8 8 8 9 9 9 9 10 10 10 10 9 8 7 7 6
8 7 6 5 4 4 6 6 5 7 6 1 3 3 2 2 2 3 7 5 0 1 3 5 7 8 4 1 3 4 3 4 5 1 6 6 2 2 2 3 6 7 6 6 6 6 6 5 3 1 2 5 5 5 5 6 6 8 8 7 7 8 9 9 10 10 9 9 8 8 7 7 8 8 9 9 10 10 11 10 10 9 8 7 7 6
6 6 6 6 5 5 6 6 5 5 3 3 4 2 2 1 2 4 6 2 3 2 1 3 5 5 2 2 4 5 4 4 3 3 7 6 3 2 3 5 7 7 7 7 7 6 7 6 4 1 1 3 4 4 6 6 6 8 8 7 6 8 8 8 9 9 9 9 8 8 7 7 7 7 8 9 9 10 11 10 10 10 9 7 7 7
4 4 5 7 6 6 6 6 5 5 3 3 4 3 2 1 2 5 5 1 3 2 1 1 3 2 1 3 4 5 4 4 2 5 7 6 4 2 3 5 7 8 8 7 7 7 7 6 4 1 1 3 4 4 5 6 6 8 8 6 6 8 8 8 8 8 8 8 7 7 7 7 7 7 7 8 8 9 10 10 10 10 9 7 7 7
4 3 4 6 7 6 6 6 6 5 3 5 6 3 2 2 3 4 4 3 3 3 1 0 2 1 3 4 4 3 2 1 4 6 6 4 2 2 3 5 7 7 7 8 9 9 8 6 4 1 2 3 3 3 4 5 6 7 7 5 6 8 7 7 7 7 7 7 7 6 7 7 7 7 7 7 8 8 9 9 9 10 9 7 7 7
4 3 4 5 5 4 4 4 6 4 2 3 4 0 3 4 3 3 4 4 4 3 1 1 1 2 4 4 3 3 1 5 5 5 5 3 2 3 4 6 7 7 6 8 10 9 7 6 4 2 1 1 2 2 3 5 6 7 6 5 5 7 7 7 7 7 7 7 7 6 7 7 7 7 7 7 8 8 9 8 8 9 9 7 6 6
3 4 4 4 3 3 3 5 5 3 1 2 3 3 4 3 3 5 5 4 4 4 2 2 1 2 4 4 4 4 1 3 4 4 3 3 2 3 5 6 7 7 8 8 9 9 7 5 4 3 2 1 2 2 3 4 5 6 6 5 4 5 6 6 7 7 7 7 7 7 7 7 7 7 7 8 8 9 9 9 9 9 9 8 7 6
2 3 5 2 2 3 4 4 2 1 2 2 4 2 2 4 5 6 7 6 4 5 4 3 3 3 5 4 4 5 4 3 4 4 3 4 4 4 5 6 7 7 8 8 8 8 7 5 4 3 3 2 2 3 3 3 4 5 5 4 3 4 5 6 6 7 7 7 7 7 7 7 7 7 7 7 8 9 9 10 9 9 9 9 8 8
1 2 4 3 2 4 5 4 3 4 3 2 4 5 6 7 6 6 8 8 6 6 5 5 4 3 6 6 5 5 5 5 4 4 4 4 5 5 6 6 7 7 7 7 7 8 7 5 3 3 4 3 3 3 3 3 3 4 4 2 1 2 4 5 5 6 6 7 7 7 7 7 7 7 7 7 7 8 9 10 10 10 10 9 9 9
0 1 3 3 2 4 6 7 7 7 6 5 5 6 7 8 8 7 7 8 8 7 7 6 5 4 6 7 6 5 5 5 5 5 4 4 5 6 6 6 6 7 6 7 8 8 7 5 4 4 4 3 4 4 4 3 2 3 2 1 1 1 2 3 4 5 5 5 6 6 6 6 6 6 6 6 6 7 9 10 11 11 11 10 9 9
2 2 4 4 3 3 4 5 5 6 6 7 8 8 8 9 8 6 5 6 8 8 8 7 6 5 5 7 7 6 5 5 5 5 5 5 5 6 7 7 7 7 7 7 7 8 8 6 5 5 4 3 3 3 3 3 3 2 1 0 2 1 1 2 3 4 4 4 4 4 5 6 5 5 6 7 7 7 8 9 10 11 12 12 11 10
1 1 4 6 6 7 7 7 7 7 8 9 9 7 6 7 7 5 5 6 7 8 9 8 6 5 5 7 8 7 6 5 5 5 5 5 5 6 7 7 7 7 7 7 7 8 8 7 6 5 4 3 3 2 2 3 3 2 1 1 2 3 1 0 2 3 4 3 3 3 3 4 4 4 5 6 7 8 9 9 9 10 12 13 12 11
1 2 6 7 7 8 10 10 9 8 8 9 8 6 5 6 7 7 7 8 8 8 8 8 8 7 7 7 8 7 7 6 6 6 5 5 5 5 6 7 7 7 7 7 8 8 9 8 7 5 4 4 3 2 3 4 3 3 3 2 2 3 2 1 1 2 3 2 2 2 2 2 3 4 4 5 5 7 9 10 10 9 9 11 13 12
4 7 8 8 8 8 7 7 7 6 7 7 6 6 7 7 7 8 9 9 9 8 8 9 9 9 8 8 7 7 7 6 7 7 6 5 5 6 7 7 7 7 7 7 8 8 9 9 8 7 6 5 4 4 4 4 4 4 4 3 3 3 3 3 2 2 2 1 2 3 3 2 2 3 3 4 4 4 4 6 10 11 10 9 12 14
6 8 8 8 9 9 9 9 9 8 8 9 9 10 10 8 8 9 11 11 10 8 7 9 10 10 9 9 9 9 8 7 8 8 6 5 6 6 6 7 7 7 7 7 7 8 10 10 9 9 8 6 5 5 5 5 4 4 4 4 3 3 3 4 4 3 2 1 2 3 3 2 2 2 2 3 4 3 2 4 5 8 10 11 11 13
Wind_Direction
229 207 185 171 128 98 70 23 13 37 347 295 277 271 277 282 282 99 118 131 266 272 262 280 262 202 177 172 170 170 172 171 160 158 157 150 147 141 132 120 112 105 100 99 90 79 62 48 39 39 38 32 30 26 22 18 16 14 10 7 5 3 1 359 356 351 346 342 335 332 336 330 319 295 251 237 219 207 202 196 192 194 202 207 202 201
231 233 99 61 57 70 71 55 30 46 275 276 271 273 267 262 277 97 147 161 236 265 253 244 243 187 174 172 169 172 175 176 173 172 168 157 150 146 136 125 122 114 109 112 112 94 60 47 39 38 35 29 24 19 16 14 12 10 8 6 3 2 2 1 357 351 345 341 334 328 330 327 320 314 269 247 225 208 202 198 194 196 203 206 206 207
209 183 84 74 73 101 103 91 113 230 252 263 275 279 276 277 304 157 174 177 216 256 250 232 236 175 164 174 175 181 184 183 180 179 173 161 157 154 144 132 129 123 120 134 137 103 54 40 35 35 32 25 19 12 11 10 7 6 5 3 1 1 1 1 358 352 345 338 335 329 328 327 328 332 296 252 226 211 203 194 193 198 204 208 213 217
186 103 89 88 112 135 117 112 193 235 235 261 298 283 285 329 300 247 172 168 202 251 258 231 233 177 164 179 183 190 191 183 180 182 175 169 167 162 153 148 147 144 154 180 161 93 15 28 28 29 27 21 14 6 5 5 3 2 1 359 358 359 0 1 358 354 346 339 339 337 336 334 335 346 317 228 197 210 203 186 184 191 199 203 210 216
93 91 81 127 211 188 148 138 250 278 256 243 297 294 307 326 294 283 163 177 198 221 240 228 237 207 186 191 186 187 190 181 180 181 178 178 173 162 156 158 161 158 172 194 171 151 343 16 23 25 23 17 10 3 0 1 1 357 356 356 355 357 360 1 359 356 351 345 346 346 348 348 347 1 334 251 172 202 192 180 180 185 193 198 204 209
85 83 5 203 174 182 214 115 27 315 294 267 152 319 322 315 292 275 238 230 236 232 208 216 260 233 186 197 196 185 185 188 192 187 184 185 176 170 171 171 174 173 176 185 185 246 323 2 14 18 18 12 6 359 356 356 356 353 353 353 353 355 358 0 360 358 355 352 350 350 354 355 351 356 359 316 294 235 166 169 176 181 187 191 198 203
86 102 236 198 146 157 244 92 58 318 291 300 76 18 307 290 279 264 244 240 262 283 170 207 267 263 184 197 198 193 195 198 199 189 190 207 193 182 183 178 179 184 176 176 203 233 303 355 9 11 10 8 2 355 352 352 350 350 351 351 353 354 355 359 359 359 359 356 353 350 352 358 354 346 342 339 279 216 140 152 169 175 179 180 187 194
97 134 164 159 185 225 249 93 65 319 293 1 50 351 282 270 266 262 252 246 270 336 182 213 258 277 253 197 179 196 210 200 191 178 186 218 214 192 183 180 181 185 179 182 203 218 292 358 8 6 5 4 360 353 351 349 348 347 348 350 352 352 353 357 357 358 360 357 355 351 350 355 359 351 336 331 282 188 152 135 160 167 172 181 190 192
98 114 121 238 239 247 37 62 45 322 301 31 32 305 280 277 271 266 259 255 273 291 245 216 221 264 271 165 164 201 220 208 196 190 197 215 217 197 184 182 182 181 181 191 205 215 304 3 9 2 3 3 358 355 349 346 345 343 345 348 350 351 351 354 354 355 357 356 355 354 352 349 353 358 347 345 9 190 195 127 146 157 163 175 183 183
94 48 33 329 288 36 66 70 35 327 325 35 343 255 237 249 257 253 256 263 257 263 268 221 157 270 279 156 178 208 226 227 209 198 205 214 214 197 182 180 179 178 179 188 208 213 287 2 5 360 2 1 358 354 348 345 345 343 344 347 348 349 348 349 350 350 351 352 354 354 353 350 350 356 353 356 13 206 200 204 179 158 164 172 174 174
108 89 48 18 6 25 64 99 71 342 324 334 237 241 226 226 240 244 254 279 263 249 259 109 119 270 279 237 208 197 233 255 223 196 195 197 198 185 178 180 176 176 177 183 206 201 160 352 359 3 0 357 354 352 349 348 348 346 346 346 346 346 345 345 345 346 347 346 350 352 351 351 352 354 354 360 5 1 196 197 214 204 184 175 169 171
148 166 141 73 32 348 251 215 177 191 234 232 246 269 260 235 217 239 222 221 257 258 86 88 141 241 258 272 206 122 119 245 228 215 190 182 185 177 175 178 169 173 182 187 211 205 104 333 355 3 354 350 350 352 351 350 349 347 345 344 343 342 342 342 340 341 343 342 344 345 346 349 350 352 356 3 1 358 8 161 193 189 178 168 162 164
176 140 118 119 82 355 284 253 199 186 213 251 271 288 275 262 240 255 247 232 262 300 76 44 293 251 260 304 57 162 203 212 217 234 212 186 179 165 157 161 162 178 201 211 229 250 326 338 359 356 347 348 350 351 350 348 348 347 345 344 342 340 341 341 339 339 338 339 341 340 342 343 344 348 352 359 4 359 0 8 53 143 154 153 155 159
168 139 154 171 133 17 315 304 279 225 300 322 322 315 298 298 297 277 267 273 290 60 86 21 288 267 260 96 50 343 202 190 197 218 211 177 166 158 157 173 186 192 209 224 230 241 316 356 3 348 344 349 349 349 348 346 347 347 345 344 343 342 345 344 341 339 337 337 339 338 339 337 335 341 344 353 4 5 1 2 16 57 149 160 159 161
286 179 126 65 59 21 2 6 354 325 311 342 343 302 295 317 314 298 292 306 318 335 118 155 250 297 327 91 70 59 119 152 183 189 171 159 160 161 167 180 197 206 215 225 225 221 350 16 357 343 347 350 349 348 345 344 346 346 344 342 342 343 344 344 340 338 337 337 337 336 336 336 331 328 331 338 350 2 7 2 7 24 39 167 179 183
289 281 76 53 41 37 42 54 1 312 278 23 308 275 301 353 318 296 319 344 327 304 269 173 250 322 359 158 138 121 141 152 168 171 165 163 163 168 179 190 210 218 218 221 218 199 138 22 346 345 351 352 348 345 343 345 345 344 343 341 341 340 340 341 340 336 334 332 332 332 332 332 330 320 316 319 326 341 352 355 359 7 10 13 209 216
291 97 104 101 97 71 42 53 33 334 320 296 277 306 21 353 303 282 274 93 261 274 289 304 292 298 186 166 154 162 168 159 166 174 174 172 171 185 203 208 217 224 221 220 219 188 145 341 338 352 356 352 347 343 343 345 345 343 342 341 340 340 339 339 337 333 330 328 327 327 327 327 324 317 308 303 305 313 317 318 325 330 333 345 350 318
309 296 127 151 137 99 59 38 80 29 336 311 320 22 27 254 263 272 274 248 250 270 301 359 305 301 292 164 159 181 190 178 181 183 183 184 187 201 212 208 218 237 243 225 216 207 199 309 345 360 355 348 345 343 343 344 344 344 344 342 340 341 340 338 335 332 328 326 325 323 323 323 320 314 308 297 291 294 295 289 286 293 305 316 343 348
296 283 140 172 200 125 160 234 151 113 26 351 31 39 293 268 257 226 272 305 297 297 316 335 300 294 306 36 174 195 197 190 191 193 197 198 198 206 205 199 204 215 219 216 219 219 212 309 354 3 351 344 344 344 344 343 343 345 345 344 341 340 340 338 336 335 331 329 327 324 323 320 316 312 306 298 292 287 281 276 272 273 283 294 311 331
279 293 138 153 168 163 201 234 237 147 127 145 166 164 301 326 328 322 318 318 307 304 317 322 294 308 58 23 328 215 195 195 197 202 205 203 201 206 205 200 201 198 206 223 223 206 190 337 359 358 345 342 345 346 345 344 343 344 344 344 342 340 338 337 338 336 335 334 331 327 325 321 316 312 305 299 296 289 280 274 269 266 266 270 270 253
233 290 313 139 151 217 224 213 334 11 63 236 224 287 22 23 290 286 268 325 312 304 322 328 306 21 61 25 347 345 212 204 203 209 209 203 201 202 199 202 205 193 202 219 214 198 211 335 354 348 342 342 345 348 347 344 344 343 342 343 343 340 337 336 337 335 334 334 332 328 325 323 318 312 305 300 296 289 283 276 269 263 259 257 253 240
294 292 297 250 191 228 99 64 24 3 342 322 326 336 345 347 297 283 244 105 309 304 329 320 305 14 70 43 6 357 303 236 218 219 213 204 201 199 199 206 212 215 208 198 198 210 237 334 343 338 337 340 345 349 347 344 344 343 342 342 341 340 338 336 333 333 333 332 332 330 325 322 318 311 307 303 294 288 286 283 275 268 261 255 250 244
318 293 282 280 294 3 74 74 51 51 289 299 306 327 338 332 305 306 330 8 304 287 306 286 290 37 88 70 28 348 299 281 251 234 219 206 201 205 210 206 199 212 213 193 194 207 229 317 325 323 330 339 346 347 345 345 345 343 342 341 341 339 337 335 332 330 330 330 329 329 324 320 318 312 307 302 295 289 287 287 283 273 263 258 253 248
220 283 281 279 273 144 130 131 151 169 219 255 257 254 298 314 329 324 328 333 306 292 289 280 290 56 103 102 46 279 259 261 243 228 222 210 202 218 224 213 200 204 200 189 193 204 217 282 302 316 332 343 347 345 344 346 345 343 343 343 342 340 336 334 334 331 330 330 327 326 327 326 322 315 311 307 303 298 293 292 289 281 272 264 260 254
228 300 295 285 276 191 180 182 184 189 228 261 274 199 265 334 334 293 279 273 283 300 330 297 297 32 91 119 168 237 244 245 225 212 218 217 218 230 231 219 211 214 208 202 201 204 218 273 301 325 340 345 346 344 345 347 345 345 347 346 343 339 336 335 335 335 333 331 328 328 332 333 330 325 322 315 311 308 303 299 292 288 286 277 271 265
282 317 306 298 310 314 288 286 311 298 260 273 275 223 205 167 188 260 280 278 286 35 306 272 282 339 6 16 259 264 245 244 219 201 209 223 235 245 246 232 225 229 227 217 210 204 219 271 309 331 341 344 342 342 346 347 347 350 352 351 348 342 338 336 335 335 336 332 331 334 335 334 335 333 328 319 313 310 309 314 310 297 291 287 281 278
293 298 294 301 312 324 323 333 346 320 288 288 289 265 233 181 182 251 274 286 332 346 287 278 285 312 322 332 344 325 257 240 223 206 210 223 236 245 246 235 232 240 236 219 209 205 216 252 300 327 336 340 339 342 345 345 348 355 355 353 354 350 343 337 334 336 337 333 333 339 336 331 332 332 330 322 310 311 325 337 332 312 300 294 285 277
282 282 268 283 290 307 316 316 311 281 270 270 264 249 216 167 159 219 253 289 356 310 291 16 41 293 308 329 338 332 288 252 235 227 229 236 241 245 241 232 233 240 233 215 204 200 212 249 301 328 335 337 336 340 343 341 347 355 355 354 356 355 349 341 336 337 339 335 335 341 338 331 330 331 332 325 309 321 350 350 336 326 319 313 306 293
284 297 311 270 275 290 300 297 286 272 270 262 246 225 188 172 171 196 236 257 280 267 284 353 342 294 299 316 321 324 299 268 249 243 244 249 250 249 247 242 241 247 243 225 209 201 212 259 320 331 333 333 334 338 337 338 345 349 350 352 354 355 353 348 343 340 341 340 338 342 339 334 335 334 331 326 322 335 349 342 338 341 335 328 326 318
284 295 284 274 278 280 285 288 276 267 275 278 271 253 190 181 198 208 244 266 232 259 279 305 306 292 289 298 304 304 284 275 262 247 239 245 249 250 252 252 253 260 261 245 227 216 217 269 321 326 331 334 335 336 334 337 343 344 347 349 351 353 353 353 353 348 344 344 343 342 341 338 339 339 335 333 334 339 336 329 332 340 336 333 332 323
262 275 233 275 284 278 270 275 271 274 283 279 277 270 141 151 225 224 244 271 232 261 274 278 283 281 276 282 290 216 194 223 237 238 240 246 252 254 253 256 263 269 271 256 233 224 230 285 319 328 337 339 336 333 332 337 340 340 344 348 349 352 353 354 356 349 343 345 344 342 343 341 341 342 340 339 339 340 335 329 328 329 331 337 340 334
233 256 246 267 284 284 261 268 279 292 288 269 263 256 184 173 226 213 196 202 198 198 190 221 263 280 275 130 181 185 190 219 234 236 242 246 247 254 259 265 272 274 271 252 230 231 261 301 328 337 341 337 336 336 333 336 340 339 344 348 348 350 352 354 355 350 345 345 343 341 343 343 343 343 342 341 339 339 338 336 333 330 331 339 345 345
247 267 271 270 282 287 280 286 296 299 290 269 257 257 213 188 199 217 215 212 200 182 179 242 279 333 43 127 240 219 207 225 238 242 258 265 260 258 261 270 281 278 247 212 199 226 274 311 335 343 343 336 336 340 334 333 339 340 343 345 346 349 352 355 357 356 355 355 350 347 346 345 345 345 344 343 340 339 341 343 345 343 339 341 345 350
250 262 272 273 278 284 291 301 297 291 292 326 40 300 232 204 202 209 230 227 205 200 231 276 292 305 282 247 265 272 245 238 255 268 283 286 281 278 267 264 273 245 177 166 163 198 251 318 339 344 348 343 339 337 328 327 334 339 340 343 346 350 352 356 0 3 5 4 360 355 352 351 350 347 346 345 342 342 346 350 351 350 348 344 345 354
251 255 264 262 265 276 293 303 292 288 320 353 7 172 298 264 233 239 262 257 223 214 234 260 274 278 276 262 259 274 281 255 272 267 255 254 265 276 276 261 224 175 169 165 163 170 175 176 343 352 354 351 345 334 325 331 335 336 338 344 349 351 354 359 5 10 13 9 6 7 5 3 0 356 352 350 348 349 352 354 353 353 354 353 350 354
250 254 260 258 261 270 278 269 269 305 331 333 178 142 129 240 232 257 273 266 230 223 234 247 265 280 289 270 238 231 187 206 259 250 229 222 235 251 271 267 189 170 168 161 160 162 161 166 12 7 359 355 351 341 339 345 341 337 341 348 352 353 357 3 7 14 17 11 10 14 13 14 13 8 3 359 356 358 360 358 357 358 357 356 357 0
242 251 255 250 247 263 274 263 264 297 306 276 162 156 180 241 253 289 293 290 240 227 239 252 274 291 299 272 218 183 165 230 264 242 182 176 213 240 256 248 158 157 157 149 148 149 145 136 101 44 5 360 4 2 359 354 344 343 348 353 355 356 1 7 10 15 17 13 14 16 14 16 19 16 13 10 6 6 7 5 4 5 3 1 3 7
232 239 246 249 235 237 273 279 274 285 294 340 106 128 160 298 314 291 289 295 93 148 246 270 292 305 307 212 175 169 179 238 270 206 123 127 147 194 203 176 154 154 154 149 148 148 145 141 132 94 1 6 18 18 9 359 352 352 355 357 359 0 5 11 13 14 17 16 17 17 16 17 18 19 20 20 18 14 11 10 10 9 6 5 7 9
218 228 235 248 247 238 259 270 266 274 308 22 44 82 127 286 289 274 280 287 101 94 285 287 306 314 311 159 162 172 200 249 277 83 97 98 93 133 184 171 159 160 158 155 159 159 154 152 149 140 2 10 18 14 7 1 358 359 0 0 4 7 9 13 13 14 17 20 19 19 21 20 19 21 23 22 21 17 11 10 10 8 9 10 12 14
183 214 232 241 245 240 247 263 269 274 309 358 345 347 36 84 232 266 285 12 72 42 18 301 321 336 119 152 168 192 230 272 345 75 88 86 85 125 184 176 167 169 167 163 163 157 158 166 168 156 7 5 3 2 1 356 358 6 6 3 9 14 11 9 12 14 14 19 22 23 27 25 20 20 19 16 13 10 8 9 7 5 7 9 13 19
200 215 232 243 247 238 237 257 271 273 319 350 339 348 85 150 221 269 312 3 3 351 36 284 322 73 150 175 195 228 261 47 73 86 96 99 104 138 167 173 172 175 175 168 162 159 168 177 179 193 355 353 340 344 354 352 358 8 9 9 16 16 13 11 13 15 14 18 21 21 23 22 17 15 17 14 9 5 6 9 9 7 5 5 10 17
243 234 224 233 248 246 237 252 267 272 343 359 336 22 170 215 254 319 338 334 328 334 354 232 254 151 172 194 220 264 22 93 110 119 120 126 129 133 152 168 172 172 166 158 160 169 180 179 179 211 293 325 306 320 345 348 356 5 9 18 22 17 17 21 20 22 23 21 20 20 19 19 17 16 17 16 14 14 14 13 15 16 13 10 14 17
262 261 246 222 219 241 238 234 251 272 111 179 209 177 189 240 326 354 327 311 323 324 300 274 261 195 197 208 224 240 223 131 148 160 155 169 174 148 157 173 179 177 170 164 168 177 187 192 201 230 259 281 288 307 331 341 351 1 8 21 26 21 26 32 30 32 34 29 26 26 25 26 26 24 24 23 22 24 25 24 25 27 27 25 27 29
242 256 270 257 189 235 248 227 227 12 60 188 220 233 260 292 336 335 312 303 307 299 284 284 279 219 207 222 229 225 227 210 188 182 188 192 182 170 170 176 186 188 181 177 178 178 187 211 231 240 247 249 271 305 320 324 339 356 9 20 31 31 35 39 38 37 37 36 35 33 34 38 37 32 31 32 29 26 27 27 27 30 33 34 37 40
269 312 304 289 247 262 280 284 310 342 342 260 251 277 295 300 301 299 296 293 287 281 277 284 284 231 210 225 232 223 229 232 212 201 207 198 185 184 183 181 189 193 184 180 179 177 190 219 234 243 253 248 250 280 300 306 318 343 6 21 43 43 40 42 40 36 36 38 39 37 37 43 45 40 35 31 27 24 23 23 25 26 29 35 39 42
290 345 290 280 286 290 278 268 276 290 290 280 268 268 279 289 287 285 289 287 282 279 274 276 281 250 216 216 222 224 228 228 218 207 206 205 194 187 185 186 190 191 190 187 181 181 195 219 232 239 253 250 247 267 284 276 278 317 358 23 176 87 46 38 34 33 32 33 38 40 37 37 42 44 36 27 23 25 25 25 26 26 24 27 31 34
177 202 256 266 281 294 270 240 241 261 268 274 278 273 268 273 274 270 271 281 288 283 272 268 272 256 220 208 216 225 223 217 214 205 194 198 199 190 190 194 192 192 199 197 185 186 198 215 228 232 240 248 252 264 265 237 232 256 340 185 200 191 75 23 16 22 21 16 26 40 42 37 31 31 35 32 27 28 30 29 30 31 27 23 22 23
147 165 268 269 262 270 278 274 266 262 259 260 265 268 265 268 273 272 266 275 286 280 269 262 258 243 221 211 215 221 216 206 207 210 199 197 203 200 198 200 198 199 204 199 189 191 202 214 225 227 227 235 243 239 225 219 214 214 222 210 203 202 195 358 358 4 3 359 9 23 34 37 25 20 34 41 38 36 34 28 30 36 35 28 23 21
273 234 270 281 278 272 275 276 274 273 266 256 249 250 264 278 286 293 294 290 285 277 264 252 242 234 228 222 214 213 214 204 197 206 207 200 204 207 202 203 203 203 204 197 190 197 209 217 222 224 224 227 223 204 206 209 202 204 212 204 199 208 214 222 277 334 340 345 14 18 16 29 30 25 30 40 50 57 50 38 34 41 43 37 35 37
260 258 268 273 270 268 274 286 295 295 284 276 273 276 284 289 284 285 296 296 286 274 259 242 231 225 226 228 219 210 212 205 192 195 204 205 208 210 207 204 204 204 207 202 195 201 213 218 218 220 222 222 212 199 203 207 200 202 206 199 196 207 219 231 240 261 292 322 23 17 357 7 35 31 27 32 43 68 82 64 48 46 48 47 44 45
252 267 277 276 274 280 291 298 301 297 287 287 291 289 290 294 288 286 296 300 294 281 257 235 224 216 213 218 217 212 213 205 188 186 196 206 206 206 205 205 205 207 205 201 199 205 211 214 217 218 218 218 212 205 206 206 202 202 202 198 200 209 222 241 249 251 257 268 47 19 346 348 22 21 19 33 32 35 96 124 89 60 51 50 50 50